Location: Chaumontel
(49.1247°N, 2.4324°E)
Time: 17:39:12
(UTC+00:00)

Envisat - Pass Details

Date: 21 May 2026
Orbit: 761 x 763 km, 98.4° (Epoch: 10 June)

Event Time Altitude Azimuth Distance (km) Brightness Sun altitude
Rises 01:43:14 0° 22° (NNE) 3,236 8.0 -16.0°
Reaches altitude 10° 01:45:48 10° 33° (NNE) 2,305 6.9 -15.8°
Maximum altitude 01:50:17 31° 95° (E) 1,319 4.5 -15.5°
Drops below altitude 10° 01:54:44 10° 157° (SSE) 2,289 5.1 -15.1°
Enters shadow 01:55:10 - 159° (SSE) 2,439 5.2 -15.1°
